STARLINK-32137 (60155 NORAD) Tracking and Keplerian Element Data

This shows tracking and keplerian element data for the satellite.

Feedback or suggestion? Click here.




ElementValue
Catalog60155
NameSTARLINK-32137
Epoch Orbit1777
Epoch Day286.71731476
Epoch Year2024
RAAN187.1818
Inclination53.1604
Eccentricity7.5E-05
Argument of Perigee142.2793
Mean Anonmoly217.8265
Mean Motion15.39627817
Decay Rate1.24E-05
L11 60155U 24120W 24286.71731476 .00001240 00000+0 40960-4 0 9993
L22 60155 53.1604 187.1818 0000750 142.2793 217.8265 15.39627817 17774



Live tracking and technical data element details for STARLINK-32137 (NORAD 60155). STARLINK-32137 can be tracked NOW for your location showing map with azimuth and elevation plus other details from your city location.







IsCatalogInMostPopularTable: catalog: 60155, numindb: 10
Update: records affected: 1



GetName: 60155 STARLINK-32137

Hit Count: updated at: Thu, 23 Jan 2025 17:32:25 GMT